RH
3 2 2 2 1 1 1 1 1 1 1 1 1 1 1 1 1 2 1 2 3 3 3 4 6 6 7 6 6 6 5 6 6 6 6 6 6 5 4 2 9 25 32 42 60 66 62 54 39 33 45 55 52 46 45 44 46 47 46 43 41 46 51 60 70 70 72 71 64 66 76 79 78 80 82 77 70 78 74 61 61 58 54 53 50 50 52 52
3 3 2 2 2 1 1 1 1 1 1 1 1 1 1 1 1 1 2 2 3 2 3 5 6 7 7 6 6 6 5 6 6 6 7 6 7 6 5 4 5 20 34 47 73 84 73 60 47 39 42 53 59 55 52 50 49 46 43 42 43 48 52 54 58 58 60 59 56 58 69 78 77 79 84 77 69 76 76 68 66 61 59 56 45 39 47 53
3 3 2 2 2 1 1 1 1 1 1 1 1 1 1 1 1 1 2 2 3 2 4 5 6 7 6 7 6 6 6 6 6 7 7 6 6 6 5 6 4 12 26 41 65 80 74 60 51 48 45 50 61 61 60 60 55 48 46 48 49 50 51 49 46 47 50 50 49 53 65 77 79 82 86 81 75 76 78 72 64 64 65 63 51 35 36 46
3 3 3 2 2 2 1 1 1 1 1 1 1 1 1 1 1 1 2 2 3 3 4 5 6 6 6 7 6 6 5 5 6 6 7 6 6 6 6 6 6 7 16 35 56 69 68 55 48 55 51 48 56 58 59 57 53 51 50 51 51 50 47 44 43 42 43 44 46 53 65 76 82 83 85 85 80 78 85 78 65 69 71 66 60 43 31 35
2 3 3 3 2 2 2 1 1 1 1 1 1 1 1 1 1 1 2 2 3 3 4 5 5 6 6 6 6 5 5 5 6 6 6 5 5 6 6 6 6 6 12 32 50 57 66 60 46 48 51 53 55 50 48 50 51 51 47 47 51 52 48 44 42 41 43 43 44 51 64 78 85 83 80 83 84 83 83 77 68 72 73 64 60 51 34 30
2 3 3 3 2 2 2 1 1 1 1 1 1 1 1 1 1 1 2 2 3 4 4 5 4 5 5 6 6 5 5 5 5 5 5 4 5 5 5 6 5 6 8 26 42 48 64 65 44 40 47 55 58 49 45 49 51 45 40 44 47 48 50 47 44 46 49 47 44 47 57 70 80 79 76 78 87 89 79 71 66 68 69 61 57 52 38 31
2 2 3 3 2 2 2 1 1 1 1 1 1 1 1 1 1 2 2 3 3 4 4 4 4 5 5 5 6 5 5 5 4 5 5 4 5 4 5 5 5 7 6 23 45 51 60 56 39 42 53 54 54 49 41 41 47 40 31 36 38 38 42 43 42 45 49 48 42 39 44 55 66 73 75 78 83 83 77 75 70 66 66 60 57 50 37 34
3 2 2 2 2 2 2 1 1 1 1 1 1 1 1 1 1 2 2 3 3 4 4 4 5 4 5 5 5 5 4 4 4 4 4 4 4 4 4 4 4 6 5 17 37 48 50 37 24 34 50 53 51 48 34 33 47 40 28 35 39 36 39 42 41 42 43 45 43 36 35 39 48 60 73 81 80 74 72 78 78 74 67 60 59 50 36 33
3 2 2 2 2 2 2 2 1 1 1 1 1 1 1 1 1 2 2 3 4 4 5 4 5 5 5 5 5 5 4 4 4 4 4 3 4 4 3 4 4 4 4 6 13 24 27 20 18 23 30 33 42 53 39 28 41 42 40 48 48 45 47 47 44 42 40 42 44 43 40 37 37 43 58 73 80 77 71 73 80 81 69 60 59 52 39 33
3 3 2 2 2 2 2 2 1 1 1 1 1 1 1 1 1 2 2 3 4 4 5 5 5 5 5 5 5 5 4 4 3 4 4 3 3 3 3 3 3 4 4 5 4 7 9 10 15 15 14 17 30 47 38 26 37 51 66 70 61 58 61 58 52 46 41 39 39 41 45 45 40 36 40 52 68 78 75 71 76 78 73 68 62 55 46 36
3 3 3 2 2 2 2 2 1 1 1 1 1 1 1 1 2 2 2 3 4 5 5 6 6 5 5 5 5 5 4 4 3 3 3 3 3 3 4 3 4 4 4 5 5 6 6 6 9 9 11 16 23 33 29 34 54 67 79 83 78 75 73 73 68 55 47 42 37 34 37 42 45 42 38 38 46 61 71 73 74 75 77 79 71 62 54 41
3 3 3 3 2 2 2 2 1 1 1 1 1 1 1 1 2 2 3 4 4 5 5 6 6 6 6 5 4 4 4 4 3 4 3 3 3 3 4 3 4 5 4 5 5 6 6 7 9 9 11 14 21 33 36 51 72 73 70 77 82 79 76 76 73 65 55 49 45 41 36 35 39 43 42 40 40 47 58 63 67 70 76 83 82 74 68 59
3 3 3 2 2 2 2 2 1 1 1 1 1 1 1 1 2 2 3 4 5 5 6 6 6 6 6 5 4 4 4 4 4 4 4 3 3 3 3 3 3 4 4 5 5 6 6 7 9 8 14 22 29 39 44 53 63 58 55 63 68 69 69 63 60 62 57 51 52 52 47 39 36 37 37 41 44 46 47 47 54 65 71 76 83 82 80 78
3 3 3 3 2 2 2 2 2 1 1 1 1 1 1 1 2 2 3 4 5 6 6 6 7 6 6 5 4 4 4 4 4 4 4 4 3 3 3 3 4 4 4 4 4 5 4 6 9 9 15 25 35 42 45 47 43 36 39 38 35 41 41 34 42 55 53 49 52 53 54 50 41 37 34 34 37 42 44 43 50 63 68 71 78 83 84 80
3 3 3 3 2 2 2 2 2 1 1 1 1 1 1 1 2 2 3 5 6 6 7 7 7 7 6 5 4 4 4 4 4 4 4 4 4 4 4 3 3 3 4 4 4 4 4 5 8 10 18 32 43 41 33 28 21 18 20 15 13 19 15 15 36 53 50 50 54 53 55 56 48 41 37 35 33 35 40 43 47 53 57 64 72 78 84 80
3 3 3 3 2 2 2 2 2 1 1 1 1 1 1 2 2 2 3 5 6 6 7 7 8 7 6 5 4 4 4 4 4 4 4 4 4 4 4 4 4 4 4 4 4 4 4 6 10 15 23 35 37 29 19 12 8 8 9 11 14 15 11 15 34 51 51 49 51 51 50 49 46 42 38 38 37 34 38 41 44 46 45 50 57 62 76 81
3 3 3 3 2 2 2 2 2 1 1 1 1 1 1 2 2 2 4 5 6 7 7 8 8 7 6 5 5 4 4 5 4 5 4 4 5 4 4 4 4 4 4 4 4 4 5 9 18 24 29 28 21 20 19 12 9 9 11 13 17 24 26 25 31 42 49 49 49 50 47 39 38 43 43 39 37 35 38 43 46 49 46 46 50 52 67 81
3 3 3 3 2 2 2 2 2 1 1 1 1 1 1 2 2 2 4 5 6 7 7 8 8 7 7 5 5 5 5 5 5 5 5 5 5 4 4 4 4 5 5 5 5 5 5 8 13 20 25 21 14 12 13 12 10 13 21 18 22 43 45 32 32 39 48 55 57 57 50 41 38 46 50 42 38 39 40 43 49 54 53 52 53 50 56 70
3 3 3 3 2 2 2 2 2 1 1 1 1 1 1 2 2 2 4 5 6 7 7 8 8 7 6 5 5 5 5 5 5 5 5 5 5 5 5 5 5 5 6 7 8 7 6 6 7 10 12 10 7 6 6 9 7 12 23 17 23 50 47 32 37 46 52 59 66 68 57 50 49 51 51 44 42 48 47 42 48 54 55 54 55 53 50 59
3 3 3 2 2 2 2 2 1 1 1 1 1 1 2 2 2 3 4 5 6 7 8 9 9 7 6 5 5 5 5 5 5 5 5 5 5 5 5 5 5 6 6 7 8 9 8 7 7 6 6 5 5 6 6 7 7 9 15 14 23 41 40 36 45 54 56 59 72 74 59 55 56 52 50 47 43 49 51 48 51 52 52 54 55 57 54 54
3 3 3 2 2 2 2 2 1 1 1 1 1 1 2 2 2 3 4 5 6 8 9 9 8 7 6 6 6 6 5 5 6 5 6 6 6 6 6 6 6 6 6 6 6 7 7 6 6 5 5 6 5 6 7 7 8 7 8 15 25 32 33 35 42 53 56 58 72 69 53 55 56 48 47 47 44 46 51 60 67 62 55 56 57 58 58 54
3 3 3 2 2 2 1 2 1 1 1 1 2 1 2 2 2 3 5 5 6 8 9 9 9 8 7 6 6 6 6 6 6 6 6 6 6 6 6 6 6 6 6 6 6 6 6 6 6 6 6 6 6 6 8 10 8 6 10 17 24 25 26 27 30 40 46 53 67 59 45 52 57 52 50 48 46 45 49 62 78 79 66 60 60 57 56 57
3 3 3 2 2 2 2 2 1 1 1 1 2 2 2 2 2 3 5 6 7 8 9 9 9 8 7 7 7 6 7 6 6 6 6 7 7 7 7 7 7 7 7 7 7 6 7 6 6 7 6 6 7 7 10 13 8 7 12 15 17 16 18 23 25 30 35 42 54 51 43 54 60 56 59 58 50 45 47 55 67 77 71 61 61 58 55 58
3 3 2 2 2 2 2 2 1 2 1 1 2 2 2 2 2 3 5 6 7 8 9 9 9 8 7 8 7 7 7 7 6 7 7 7 8 8 8 8 8 8 7 7 7 7 7 8 7 7 7 7 8 8 10 11 7 7 10 10 12 15 20 32 37 35 33 32 41 45 45 58 62 59 65 64 54 50 50 50 55 64 64 58 60 62 56 56
3 2 2 2 2 2 2 1 2 1 2 2 2 2 2 2 2 4 6 7 7 8 9 9 9 8 8 8 8 8 7 7 7 7 8 8 8 8 8 9 9 9 8 8 8 8 9 9 9 9 8 8 8 8 8 9 9 8 8 9 11 18 31 45 49 46 40 39 47 50 50 59 62 60 64 61 55 57 54 50 57 66 65 57 57 63 61 57
2 2 2 2 2 2 2 2 2 2 2 2 2 2 2 2 2 4 6 7 7 8 9 10 10 9 9 9 8 8 8 8 8 9 9 9 9 9 9 9 10 9 9 9 9 11 11 10 10 9 8 9 9 9 8 8 11 10 8 12 14 20 35 48 54 51 45 45 52 55 58 60 57 55 59 59 56 59 58 58 67 76 76 69 63 64 68 63
2 2 2 2 2 2 2 2 2 2 2 2 2 2 2 2 3 5 7 6 7 9 10 10 11 10 9 9 9 9 9 9 9 10 9 9 10 9 9 9 10 10 10 11 13 13 12 10 10 10 10 10 11 10 9 8 12 12 9 15 20 21 28 40 52 50 43 46 52 59 64 60 57 59 61 65 65 64 64 65 72 81 84 84 75 66 68 65
2 2 2 2 2 2 2 2 2 2 2 2 2 2 2 3 4 7 7 6 10 15 13 10 11 10 9 9 10 9 9 10 10 10 10 10 10 10 10 10 10 10 10 12 14 12 12 13 13 15 14 14 13 12 10 9 13 14 10 14 22 21 21 31 46 50 49 56 62 66 64 62 69 72 69 72 73 69 69 67 71 79 83 85 82 72 69 70
2 2 2 2 2 2 2 2 2 2 2 2 2 2 2 3 6 8 6 11 20 21 17 15 13 11 9 9 10 10 10 10 10 10 10 10 10 10 10 10 10 9 9 12 13 11 12 14 16 17 15 14 15 14 11 10 12 13 10 10 14 16 18 27 42 51 54 59 67 69 65 65 70 71 70 74 70 64 68 71 71 77 82 83 81 75 74 76
2 2 2 2 2 2 2 2 2 2 2 2 2 2 3 5 8 8 6 16 29 27 21 20 17 13 10 9 10 10 10 11 10 10 10 10 10 10 10 10 10 9 9 11 11 10 10 12 14 13 12 12 13 14 14 11 11 11 10 9 10 11 15 24 35 44 50 59 68 70 64 58 57 58 60 63 60 55 59 66 69 74 80 80 79 78 79 83
3 3 3 2 3 3 2 2 2 2 2 2 2 3 5 8 10 9 9 18 29 29 25 24 21 16 12 10 10 10 10 11 11 10 11 10 10 10 10 11 11 9 10 11 11 10 9 10 10 9 10 12 11 13 15 12 10 11 10 9 11 12 16 23 29 37 49 61 69 68 61 55 54 53 49 50 56 58 59 64 68 74 78 78 82 86 86 91
3 3 3 3 3 2 2 2 2 2 2 2 3 5 8 11 11 9 12 21 28 28 27 26 22 16 13 11 10 10 10 11 11 10 10 10 10 10 9 10 10 9 9 10 10 9 9 10 10 9 11 11 10 13 16 14 12 12 12 11 12 13 17 21 25 36 47 57 64 65 60 56 54 49 46 50 59 64 64 66 69 76 81 82 83 86 86 88
3 3 3 3 3 2 3 3 2 2 2 2 4 8 11 12 13 11 14 22 27 26 25 26 21 15 12 11 10 11 11 11 11 11 10 10 10 10 10 11 10 10 9 9 9 8 9 11 11 10 11 11 10 12 15 15 13 12 13 14 13 13 16 16 18 27 37 46 56 58 52 52 54 52 51 56 60 62 61 62 66 73 79 81 82 84 86 82
3 3 3 3 3 3 3 2 3 2 2 3 6 12 13 13 14 15 16 19 22 23 24 24 20 14 12 11 11 12 11 11 11 11 10 10 10 9 10 10 9 9 9 9 9 9 9 11 11 10 11 11 10 11 13 12 12 13 12 13 15 14 14 15 15 19 24 33 44 45 44 49 54 55 56 59 62 62 60 58 60 65 68 73 76 77 77 74
3 3 3 3 3 3 3 2 3 2 2 4 10 15 14 13 13 12 12 14 14 17 20 20 18 15 13 11 12 12 11 12 11 10 10 9 9 8 8 9 8 8 9 9 10 9 9 11 12 11 11 10 9 11 13 12 12 15 15 17 17 14 14 15 17 19 21 30 36 33 36 43 47 51 54 58 63 63 63 62 61 61 62 65 69 69 67 64
3 3 3 3 2 3 2 2 3 2 2 6 13 16 13 13 13 10 12 15 15 18 20 18 19 19 15 12 13 12 11 14 14 11 10 9 8 7 8 9 8 8 9 9 9 9 10 12 12 11 11 10 10 11 12 13 13 14 17 19 17 15 17 19 21 24 25 35 40 30 27 32 37 43 43 46 55 60 65 68 65 62 59 60 65 69 70 69
3 3 3 3 2 3 2 2 3 2 4 10 16 16 13 13 13 12 15 16 21 29 27 19 18 18 14 12 15 15 13 18 19 14 12 10 8 8 7 8 8 9 9 9 9 9 10 11 11 11 10 10 11 11 12 12 12 13 15 15 13 15 18 17 20 25 26 38 50 45 39 38 41 47 43 39 45 55 66 72 70 67 62 59 61 64 67 70
3 3 3 2 2 3 2 3 3 2 7 15 18 15 13 14 12 15 18 17 24 34 33 27 22 17 13 12 16 16 15 20 19 13 11 10 9 9 9 9 10 9 9 9 9 9 10 10 10 10 11 11 11 11 12 12 11 13 12 11 11 13 16 15 19 23 22 31 42 42 43 46 47 50 48 42 40 46 59 70 75 74 70 68 67 66 66 64
3 3 3 3 3 2 2 3 2 5 12 18 17 15 14 13 12 16 18 17 23 30 33 33 27 19 16 14 13 13 15 18 17 13 12 10 10 12 11 11 11 9 9 9 9 9 10 10 10 10 10 11 11 11 11 11 11 11 11 11 11 11 14 16 19 21 20 23 26 25 29 34 35 35 34 33 32 33 42 51 60 66 67 68 67 66 68 64
3 3 3 3 3 2 3 2 3 10 17 18 15 15 14 13 12 14 15 17 22 27 32 35 27 19 17 14 13 14 14 17 16 14 14 11 9 11 11 11 10 9 9 9 10 10 10 10 10 11 11 10 10 11 10 11 11 10 10 10 11 12 14 16 20 22 21 23 23 22 25 26 25 25 24 26 27 28 32 34 36 40 43 46 46 49 57 60
3 3 3 3 2 3 3 3 8 17 19 16 15 14 14 13 12 11 14 17 17 20 33 41 33 22 16 14 15 16 15 17 16 13 12 11 10 11 11 12 11 10 9 9 10 10 10 10 10 10 11 11 11 11 11 12 12 11 11 10 11 16 17 17 21 23 21 21 21 21 25 26 22 22 21 22 24 25 29 27 23 23 24 26 30 36 43 48
4 3 4 3 3 3 3 4 11 17 16 15 15 14 13 13 12 10 14 18 15 15 27 35 29 20 14 13 14 14 15 16 14 12 11 10 11 11 12 12 12 11 11 10 10 11 10 10 11 11 12 12 12 12 12 12 12 11 12 12 13 15 16 15 16 16 16 19 19 18 21 22 21 22 24 26 29 33 35 30 22 22 27 27 27 30 34 39
4 4 4 4 4 4 3 7 12 14 13 12 13 13 12 12 12 10 13 19 22 21 22 25 23 18 12 11 11 12 14 13 12 12 12 11 11 11 11 12 11 12 11 10 10 11 11 10 10 12 12 12 13 13 12 12 12 12 12 12 13 12 12 12 12 12 12 12 13 14 17 22 27 31 36 39 40 42 42 37 31 31 36 38 34 29 27 30
4 4 4 5 6 6 7 10 12 12 11 11 11 11 11 11 11 10 11 16 22 22 18 18 22 18 11 10 11 11 12 13 12 12 12 11 12 11 11 11 12 12 12 11 11 11 11 11 11 12 13 13 13 13 13 12 12 12 12 11 11 10 10 11 11 10 10 9 10 14 21 29 36 39 42 44 44 44 44 42 41 39 38 39 40 35 28 26
4 4 4 5 6 8 10 11 11 11 10 10 9 10 10 10 10 10 10 12 15 18 15 13 14 13 10 10 11 11 12 13 12 12 12 11 11 11 12 12 13 13 12 12 12 12 12 12 11 12 13 13 14 13 13 12 12 12 12 12 12 11 10 10 9 9 9 10 14 19 26 33 37 40 43 45 47 51 53 51 46 40 34 31 34 38 37 35
5 4 4 4 5 7 10 11 11 10 10 10 9 9 10 9 10 11 11 12 11 13 15 12 9 10 10 9 10 11 12 12 12 12 12 12 12 12 13 13 13 13 13 12 12 12 12 12 12 12 13 14 14 13 13 13 12 12 13 14 13 11 10 9 9 9 10 13 16 19 27 33 37 42 49 54 56 59 61 59 50 42 35 28 24 29 34 38
6 6 7 6 7 8 9 11 10 9 10 10 10 11 11 12 15 15 13 15 14 13 15 13 9 9 9 9 10 11 11 12 12 12 12 12 13 13 13 13 13 13 13 13 13 13 13 12 13 13 13 14 14 14 14 13 12 13 14 14 13 12 11 9 9 10 10 13 15 17 21 27 34 44 53 59 61 60 60 57 48 40 35 29 23 20 24 30
12 12 13 11 10 11 10 10 9 10 12 10 11 16 16 15 18 15 13 18 20 15 12 12 10 9 9 9 11 12 11 12 12 12 13 13 14 14 14 13 13 13 14 13 13 14 14 13 13 13 14 15 15 15 15 14 14 16 15 14 14 13 12 10 9 10 12 13 13 14 18 24 35 46 53 53 53 53 53 48 41 37 34 30 25 19 18 23
19 18 16 14 14 13 11 11 11 14 18 19 23 25 19 17 16 11 8 14 19 17 12 9 9 9 9 10 11 11 11 12 12 13 14 14 14 14 14 14 14 14 14 14 13 13 14 14 14 14 15 16 16 16 16 16 16 16 15 15 15 13 12 11 10 11 12 11 12 14 19 27 38 47 50 48 47 49 48 41 34 31 29 25 21 19 16 20
22 21 19 18 18 15 13 12 13 20 25 32 42 39 27 25 24 16 11 9 10 14 13 10 9 9 10 12 12 12 12 12 13 14 14 15 15 15 15 15 14 14 14 14 14 13 14 14 14 14 15 16 17 17 17 17 16 15 15 15 14 12 11 11 12 12 12 13 17 20 23 31 41 47 49 49 49 49 45 37 30 28 25 19 17 18 15 18
24 23 20 21 23 20 17 13 13 20 23 22 29 30 24 23 22 19 20 13 6 10 11 10 11 10 10 12 12 12 13 13 14 15 14 15 15 15 16 16 15 15 14 14 15 14 14 14 14 15 15 16 18 17 16 17 16 16 15 14 13 12 12 12 11 13 15 19 24 28 30 35 41 48 52 52 51 48 41 34 30 28 23 17 18 20 16 16
26 24 21 22 25 26 24 18 15 20 21 13 13 16 17 15 11 12 17 12 6 8 10 10 12 12 11 12 13 13 14 15 16 15 15 16 16 16 16 16 16 16 16 15 15 14 14 14 14 15 15 17 18 18 18 17 17 16 15 13 13 12 11 11 11 15 20 24 27 29 31 33 37 43 47 45 43 39 33 31 31 27 22 20 22 23 18 17
Wind_Speed
0 1 2 2 2 2 2 2 2 3 4 4 4 5 6 7 8 10 11 12 15 16 15 13 11 10 9 9 9 9 9 9 9 9 9 9 9 10 10 10 10 11 10 11 16 18 14 10 9 11 13 9 5 5 5 3 2 2 2 2 4 4 4 5 6 6 5 5 6 6 5 3 3 3 3 2 3 3 2 3 4 4 3 3 3 1 2 3
2 1 2 2 2 2 2 2 3 3 4 4 4 5 6 7 8 9 11 12 14 15 13 11 9 8 8 8 8 8 8 8 8 8 9 8 8 9 9 10 9 9 9 11 17 15 9 7 7 9 13 11 7 5 6 5 4 2 1 1 2 3 3 4 4 4 4 4 5 6 5 3 2 2 2 2 2 1 1 3 4 4 4 4 4 2 1 3
4 2 2 2 2 2 2 2 3 4 4 4 4 5 5 7 8 9 10 12 14 14 12 9 8 7 7 7 8 8 7 8 7 7 8 8 8 8 8 8 7 7 8 11 16 14 7 7 8 9 11 13 10 7 8 7 5 3 1 1 1 2 3 4 4 4 4 5 5 5 5 4 2 2 1 2 2 2 2 3 4 5 5 5 4 2 1 2
6 4 2 2 3 2 2 2 3 4 4 4 4 4 5 6 8 9 10 12 14 13 10 7 6 6 6 6 7 7 7 7 7 7 7 7 6 6 7 7 7 6 7 9 12 13 10 9 10 11 11 13 12 9 9 8 6 4 3 3 3 4 5 5 6 5 5 5 5 4 4 4 2 2 2 2 1 1 2 2 3 5 5 4 4 2 0 2
7 6 4 3 3 3 2 3 3 4 4 3 3 4 5 6 7 9 10 12 13 11 8 6 5 5 5 6 6 7 6 7 7 6 6 6 6 6 6 6 6 6 7 8 8 11 11 8 9 11 11 14 13 10 11 10 7 5 5 7 8 8 8 8 8 7 6 5 5 4 4 3 2 1 3 3 3 1 1 3 3 5 4 4 4 3 1 2
9 7 5 4 4 3 3 3 3 3 3 3 3 4 5 6 7 9 10 12 12 9 7 5 5 5 5 5 6 7 6 6 6 6 7 6 6 6 5 5 6 6 7 6 7 10 10 6 7 11 12 13 11 10 13 12 9 7 9 10 10 9 9 9 8 7 7 5 5 5 4 2 1 2 3 3 3 2 2 3 4 5 4 3 4 3 2 2
10 9 7 6 4 4 4 3 4 3 3 3 4 4 5 6 7 8 10 12 10 7 5 5 5 4 5 5 5 6 6 6 6 6 7 7 6 6 6 5 6 6 6 6 6 8 7 3 3 8 12 12 11 10 13 12 9 9 11 11 9 8 10 9 8 7 7 6 5 5 4 3 2 2 2 2 2 3 2 4 6 6 4 4 4 3 3 3
11 10 8 7 6 5 4 4 4 4 4 4 4 5 5 6 7 8 10 11 8 5 4 4 4 4 4 4 5 6 6 6 6 6 7 8 7 7 7 6 6 6 4 4 5 6 5 3 2 6 10 10 9 9 11 12 9 9 11 11 10 9 10 10 9 8 8 7 6 5 4 4 4 3 2 1 2 4 2 3 6 7 5 4 4 4 3 4
12 11 10 9 7 6 5 5 5 4 5 4 4 5 5 6 7 8 10 10 6 4 4 4 3 4 4 4 5 6 6 6 7 7 8 8 8 8 8 8 8 7 6 5 5 7 5 3 4 7 10 10 9 7 9 11 9 10 12 11 9 8 9 9 10 10 8 7 6 6 5 5 5 4 3 1 2 3 3 2 3 4 4 4 4 5 4 4
14 12 11 10 8 7 6 6 5 5 5 5 5 5 5 6 7 8 9 8 4 3 3 3 3 3 4 4 5 6 7 8 8 8 8 9 10 10 10 10 10 10 10 8 9 9 4 2 6 10 11 11 9 6 6 9 11 12 12 9 8 8 9 9 10 10 8 7 6 6 6 6 6 5 5 4 2 3 3 2 1 2 4 6 5 6 6 6
15 13 12 11 10 8 7 7 6 6 6 6 5 5 6 6 6 8 9 6 2 2 2 3 3 3 3 4 5 5 7 8 8 8 9 10 11 11 11 11 11 11 10 10 11 9 5 5 9 11 11 9 8 7 7 8 11 11 9 7 7 9 10 10 10 10 9 8 7 7 8 7 7 6 5 6 5 4 4 4 2 2 4 6 7 7 8 8
17 15 13 12 11 9 8 8 7 7 7 6 6 5 6 6 6 7 7 4 1 1 1 2 2 3 3 4 5 5 6 7 7 8 9 10 11 11 11 11 11 11 10 11 10 8 7 8 10 9 9 9 8 7 6 9 9 6 6 8 7 8 9 10 10 11 9 8 9 10 9 8 8 9 7 6 6 5 5 5 4 4 3 5 7 8 9 10
19 17 14 13 12 10 9 9 8 8 8 7 6 6 6 6 6 7 6 2 1 0 1 1 2 2 3 3 4 5 5 6 6 7 9 10 10 11 12 11 11 11 10 10 9 7 7 9 10 9 8 9 8 7 6 7 7 4 4 7 7 7 8 10 11 11 10 8 9 11 12 10 9 10 10 8 6 6 6 6 6 6 5 6 7 9 11 12
21 18 16 14 13 12 11 10 9 9 8 8 7 6 6 6 6 6 5 3 2 1 1 1 2 2 2 2 3 4 5 5 5 6 8 9 10 10 11 11 10 10 10 9 8 8 9 10 10 9 7 9 9 7 6 3 3 4 6 7 8 9 10 12 11 9 8 9 11 12 13 14 12 10 11 11 9 7 6 6 6 6 7 7 7 9 11 13
22 20 18 16 14 13 12 11 11 10 9 8 7 7 6 6 6 6 4 4 3 2 2 2 2 1 1 1 2 3 3 4 5 6 7 8 9 10 10 10 10 10 9 9 9 9 10 11 10 8 7 8 6 3 4 3 4 7 10 11 13 13 14 14 9 5 7 11 14 15 14 16 16 13 11 12 12 10 7 7 8 8 8 8 7 7 9 11
24 22 19 17 15 14 13 12 12 11 10 9 8 7 7 6 6 5 4 5 4 3 2 2 2 1 1 0 1 2 3 4 4 5 6 8 8 9 9 8 8 9 9 9 9 10 11 11 10 8 7 6 3 1 5 9 11 12 13 14 16 16 15 13 7 6 10 14 17 20 17 15 17 16 14 13 13 12 10 8 8 9 9 9 9 8 7 8
25 23 21 18 16 15 15 14 13 12 11 10 9 8 7 6 6 5 5 6 5 4 3 2 2 1 1 1 1 1 2 3 3 4 5 7 7 8 8 7 7 9 9 9 9 9 11 11 10 9 6 3 0 4 9 12 14 14 14 14 15 15 14 10 6 7 11 15 19 22 20 17 18 16 14 14 13 10 9 9 9 8 9 10 9 8 8 8
26 24 22 20 18 16 16 15 14 12 11 10 9 9 7 7 6 6 6 7 6 5 4 2 2 2 2 1 1 1 2 2 3 4 5 6 6 7 7 6 7 9 9 9 9 8 10 11 10 9 7 4 5 10 13 14 15 14 13 13 13 13 12 9 8 10 12 17 19 21 21 20 20 15 9 11 11 9 8 8 8 8 8 9 9 9 8 9
27 25 23 21 19 18 17 16 15 13 12 11 10 9 8 7 7 6 8 8 7 6 4 3 2 2 2 2 1 1 1 2 3 3 4 5 6 6 6 6 8 8 8 9 8 7 9 10 10 9 8 8 11 14 16 15 15 14 12 12 10 10 11 11 11 12 14 18 16 18 21 21 21 15 6 6 7 9 10 9 8 9 9 9 8 8 9 10
27 25 23 21 20 19 18 17 16 14 13 12 11 10 8 8 7 7 9 9 7 6 4 4 2 2 3 3 2 2 2 3 3 3 4 5 6 6 7 7 8 7 7 7 8 7 7 9 10 10 11 12 14 15 15 14 14 12 10 9 6 7 9 11 12 11 13 15 11 13 19 19 19 14 8 5 4 8 11 11 11 10 9 9 9 8 9 10
28 26 24 22 20 20 19 18 16 15 14 13 11 10 8 8 8 8 10 10 8 7 5 5 3 3 4 3 2 3 4 4 4 4 4 5 6 6 7 7 7 6 5 6 9 9 8 9 10 10 12 13 14 14 14 13 13 10 8 7 4 3 4 8 11 8 8 11 9 11 17 18 17 15 12 9 6 7 10 11 12 11 10 9 10 9 9 10
28 26 24 22 21 21 20 19 17 16 15 13 12 10 9 9 9 9 11 10 9 8 6 6 4 4 4 3 4 5 5 4 5 4 4 5 7 7 5 6 7 4 4 6 9 10 10 11 11 11 14 14 14 14 14 13 12 9 7 6 4 4 7 12 14 8 6 9 9 12 16 17 17 16 16 14 9 7 8 10 11 10 11 10 10 11 10 9
27 25 24 23 22 22 21 19 18 16 15 13 12 10 10 10 9 10 12 11 10 9 7 6 5 5 5 4 5 5 5 5 5 4 4 5 7 8 5 5 6 3 3 6 8 10 11 12 12 13 14 14 14 16 14 12 10 9 9 8 9 11 14 16 17 13 9 10 12 13 15 15 15 17 18 18 15 12 10 10 10 11 11 10 9 10 10 9
26 25 24 23 23 22 21 20 18 17 15 13 12 11 10 10 10 11 13 12 10 9 8 7 6 5 5 5 6 6 6 6 5 4 5 5 7 8 6 4 3 2 3 6 9 10 12 12 12 13 13 12 13 15 12 10 12 13 12 13 14 14 15 16 17 17 14 13 14 16 16 13 15 16 17 18 19 19 16 11 11 11 11 10 9 10 9 8
26 25 24 24 24 22 21 20 18 16 14 13 12 11 11 11 10 12 13 12 11 10 9 8 7 6 5 6 6 7 7 7 5 6 6 6 6 7 7 3 2 3 3 7 10 10 11 11 11 11 10 11 13 12 11 11 14 15 14 15 14 11 11 14 16 17 15 14 13 16 18 16 18 18 16 17 18 19 18 14 12 12 10 10 9 9 9 8
25 25 24 24 24 22 21 19 18 16 15 14 12 11 11 11 11 12 13 12 12 11 9 8 8 7 7 7 7 8 8 8 7 6 6 6 5 6 6 4 3 5 4 7 10 9 9 9 8 9 8 10 12 12 12 13 14 15 14 14 13 9 8 10 10 12 11 10 11 14 18 20 23 21 18 18 18 18 18 16 13 11 10 10 9 8 8 8
24 24 25 24 23 22 21 19 17 16 15 13 12 12 11 10 11 12 13 13 12 11 10 9 9 9 9 8 8 8 8 8 7 6 6 5 5 5 5 4 5 5 5 7 9 7 6 6 7 8 8 10 12 12 13 14 14 15 15 13 10 8 6 6 5 8 11 5 4 10 16 21 22 20 19 20 19 20 20 17 12 8 9 10 9 9 9 9
23 24 24 24 23 22 20 18 17 16 14 13 12 12 11 11 11 13 14 14 13 12 11 11 10 10 10 9 8 8 8 7 6 5 5 4 4 3 3 3 4 4 4 6 6 4 3 5 7 8 8 9 11 12 13 14 13 13 14 12 9 8 8 6 4 7 11 10 5 9 16 18 15 13 16 18 18 18 17 14 10 6 5 7 10 10 8 7
23 24 24 23 22 21 20 19 17 16 15 13 12 11 11 11 12 13 14 14 13 12 12 12 11 10 10 9 8 7 7 6 5 5 5 4 3 2 2 1 2 3 4 5 4 2 4 5 5 5 6 8 10 12 12 13 13 12 12 10 11 11 9 8 6 6 9 8 7 10 13 13 11 10 14 17 17 16 14 13 10 6 4 5 9 9 8 7
23 23 23 22 22 21 20 19 18 16 14 12 11 11 10 11 12 14 15 14 13 13 12 13 12 10 10 9 9 8 7 6 6 5 4 3 3 2 1 0 1 3 3 3 3 3 3 4 3 2 5 7 9 12 12 12 12 12 13 12 13 15 13 11 9 7 7 7 8 10 14 16 14 12 13 16 18 17 14 14 13 10 8 6 7 8 9 9
22 22 22 22 22 21 20 19 17 15 13 12 12 11 11 11 12 14 15 15 14 13 12 12 12 11 10 10 10 9 8 7 6 5 5 4 4 3 2 2 1 1 3 2 4 4 4 3 2 2 5 6 8 11 13 14 14 13 14 16 17 16 14 13 12 10 7 4 5 10 17 22 19 16 16 16 19 20 17 15 14 13 12 7 5 8 8 8
21 21 21 22 21 21 20 18 16 14 13 12 11 11 12 13 14 16 16 15 14 13 12 11 11 11 10 9 9 9 9 8 7 7 6 6 5 4 3 3 3 0 3 1 4 4 3 5 4 4 5 6 8 10 12 14 16 16 15 17 20 17 13 13 12 10 6 4 7 13 20 24 22 20 19 18 19 20 19 17 15 13 11 9 8 9 10 10
21 21 21 21 21 20 19 18 16 14 13 12 11 12 14 15 16 16 16 16 15 13 11 10 11 12 11 9 9 10 9 9 8 8 8 7 6 5 4 5 5 3 3 3 3 4 5 7 8 8 8 9 9 9 10 12 14 16 16 18 20 18 15 15 13 10 7 6 9 17 22 24 23 20 19 20 20 19 18 18 16 15 14 15 15 13 12 13
21 21 21 21 20 20 19 18 16 15 13 12 12 14 17 18 18 17 17 17 17 15 13 11 12 13 12 11 11 11 11 10 10 8 8 8 8 7 6 6 7 6 4 3 2 5 8 9 10 12 13 13 10 8 9 13 14 14 16 18 19 18 18 17 16 14 11 7 9 15 18 21 23 21 20 21 21 20 19 18 17 16 15 16 17 15 14 16
21 21 21 20 20 19 19 18 17 15 14 13 14 16 18 19 19 19 18 17 18 17 14 13 13 12 11 11 11 12 11 10 10 9 8 9 10 8 5 5 6 5 3 2 2 5 8 10 12 13 14 15 14 12 10 14 15 14 15 16 17 17 18 18 17 17 15 12 13 15 15 17 20 20 20 21 21 22 23 22 20 19 17 17 18 18 18 17
21 21 21 21 20 19 19 18 16 16 14 13 16 19 20 20 19 20 19 19 18 14 12 13 13 11 10 10 11 11 10 9 9 10 8 9 10 7 5 5 5 3 2 3 4 4 5 8 12 13 13 17 17 17 16 17 17 16 16 16 16 17 18 18 18 18 17 14 16 19 20 18 19 19 20 21 21 23 25 24 24 24 23 21 21 22 22 20
21 21 21 21 20 19 19 18 17 16 14 15 19 21 21 21 21 21 20 20 18 14 11 12 12 13 13 13 12 12 11 9 10 12 10 10 11 8 6 5 3 2 4 6 7 5 3 7 13 13 12 16 18 16 17 20 19 19 19 19 18 18 19 20 20 20 19 15 15 20 22 22 20 20 21 22 22 25 26 27 27 28 27 26 25 25 25 23
21 21 20 20 20 19 19 18 16 15 15 18 21 22 22 22 22 21 21 20 19 16 13 11 11 13 16 16 15 14 13 12 13 14 13 12 11 9 7 5 3 4 6 9 9 8 5 5 10 15 13 15 18 17 17 20 20 20 21 21 20 20 21 22 21 22 23 20 18 22 23 23 23 22 24 24 23 24 25 26 28 29 30 29 28 28 28 27
21 21 21 20 19 19 19 18 16 15 17 21 23 23 23 23 23 22 22 21 19 17 16 12 9 12 16 16 15 14 13 13 13 13 13 12 12 10 8 6 7 7 8 10 10 10 10 7 8 14 15 15 18 19 18 18 19 20 22 21 22 23 23 23 23 24 25 24 25 26 27 27 28 29 29 30 28 26 25 26 28 29 30 30 31 31 31 31
22 22 21 20 20 19 19 18 16 15 19 23 24 24 24 23 23 24 23 23 21 20 19 16 12 12 15 15 14 13 11 9 9 10 12 13 12 9 8 8 10 9 8 9 9 11 14 13 10 10 12 15 18 20 20 19 20 20 21 22 23 24 24 24 24 26 26 27 28 29 30 31 31 32 32 33 32 31 31 31 30 30 30 32 33 32 32 32
23 23 22 21 21 20 19 18 16 17 22 25 25 25 26 25 24 24 23 24 23 21 21 21 17 15 16 16 14 13 12 10 9 11 14 15 13 10 9 10 13 12 10 10 10 12 15 16 13 10 10 14 18 21 21 22 21 21 22 23 23 22 23 22 23 26 27 28 29 30 32 33 33 33 33 33 34 34 34 34 33 31 30 32 32 32 32 31
24 23 21 21 21 20 20 18 18 22 26 27 28 28 26 25 24 22 22 23 24 21 21 23 21 19 19 18 16 14 14 13 13 16 17 16 13 11 10 11 13 15 15 15 14 14 15 16 16 14 12 16 20 21 21 21 22 22 21 22 23 23 23 23 24 25 26 27 28 30 32 33 33 33 33 33 33 33 33 32 31 30 30 30 31 31 31 31
25 24 22 20 20 20 20 19 21 25 27 28 29 28 26 25 25 23 21 21 22 21 21 22 22 21 20 19 17 15 15 16 17 18 20 19 16 14 13 12 13 14 17 19 17 15 17 18 18 17 16 18 20 21 21 22 22 22 22 23 25 26 26 26 27 27 27 27 28 30 31 32 32 31 30 29 28 28 27 27 27 28 29 28 29 30 31 32
26 25 24 22 20 19 19 20 23 26 26 26 28 28 27 26 26 26 24 22 21 20 20 22 23 21 19 18 17 16 16 18 19 20 21 21 19 17 15 13 13 16 19 21 19 18 20 20 20 20 18 18 20 21 21 22 22 23 23 24 26 27 27 28 29 30 30 30 30 30 30 29 29 28 27 26 26 27 27 26 26 27 28 27 26 28 29 30
26 26 26 25 23 21 20 22 24 26 25 26 27 28 28 27 27 28 27 24 22 21 20 22 23 22 22 20 18 18 17 18 20 21 22 22 20 18 16 14 15 18 21 22 22 21 22 21 22 22 20 20 20 20 22 23 23 24 25 26 27 28 28 29 30 31 31 31 30 29 29 29 29 29 28 27 28 29 30 30 29 29 29 28 26 26 26 26
25 26 26 27 26 25 24 24 24 25 25 26 27 27 27 27 28 29 27 25 24 23 22 23 22 23 24 22 19 19 20 20 21 21 22 22 22 20 18 17 18 20 21 23 23 23 23 23 23 22 22 21 21 21 22 23 23 25 27 28 28 29 29 29 30 31 31 30 30 30 30 30 30 30 30 30 31 32 33 32 31 30 29 29 28 28 26 24
22 23 24 25 25 26 26 26 26 27 28 28 28 27 27 27 29 29 25 22 24 24 23 24 23 23 23 21 19 20 21 21 20 20 20 20 20 21 21 20 21 20 20 22 23 24 25 25 24 23 23 23 22 22 23 24 25 27 28 28 28 29 29 30 30 30 30 30 30 31 31 31 30 30 30 31 32 33 33 33 32 30 29 29 30 30 29 25
18 19 19 21 23 25 27 28 29 29 29 29 28 26 28 28 29 30 25 20 21 23 24 24 24 23 22 20 19 21 22 22 20 19 19 19 20 22 23 23 22 22 21 21 22 22 24 25 25 25 24 24 24 24 24 26 27 28 28 28 29 29 29 29 30 30 30 30 31 31 31 31 30 30 30 32 32 33 33 33 32 31 30 31 31 31 30 27
15 16 17 18 21 24 27 29 30 29 29 28 27 27 28 28 29 31 28 22 20 22 24 24 24 23 21 19 20 22 23 22 20 18 18 20 21 23 25 25 25 24 23 22 22 22 23 24 24 24 24 24 24 25 26 27 29 29 29 28 29 30 30 30 31 31 31 31 31 31 31 31 32 32 32 33 34 34 34 35 35 32 31 32 32 31 30 28
15 16 17 18 20 24 28 30 31 30 31 30 28 28 29 28 29 31 30 26 22 20 22 24 24 23 20 19 21 23 23 21 20 19 20 22 22 23 24 25 26 26 25 25 24 23 24 24 24 24 23 22 23 25 26 27 28 29 29 29 29 30 30 31 31 32 32 31 31 32 32 32 33 34 35 35 36 36 37 38 38 34 31 31 30 29 29 29
17 17 18 19 21 24 28 31 31 31 33 32 30 30 31 31 32 32 31 29 23 18 19 22 22 22 21 20 21 23 23 20 19 22 22 22 22 23 24 25 25 26 27 27 26 25 25 25 24 23 23 22 23 24 26 27 28 29 29 29 29 29 30 30 30 31 31 31 31 32 33 33 34 35 35 36 37 38 38 38 37 33 30 29 28 27 28 27
18 18 19 20 21 24 27 30 31 32 33 33 32 32 33 32 33 33 31 29 25 21 19 20 21 22 23 23 22 22 21 20 21 23 23 22 22 23 24 25 25 26 27 27 27 26 26 26 25 24 24 23 24 24 25 27 28 28 29 29 29 29 29 29 29 30 30 31 31 32 33 33 34 35 35 36 37 38 37 37 34 30 28 27 26 26 27 25
Wind_Direction
175 11 5 4 6 3 353 347 341 336 334 333 337 340 342 346 347 350 355 360 2 4 9 14 14 16 19 17 13 18 18 18 15 12 20 22 21 30 31 30 41 57 67 78 72 60 61 74 89 107 108 111 133 135 129 129 92 22 3 351 338 338 357 11 4 18 28 342 350 26 38 50 71 71 78 57 45 57 352 340 10 13 3 359 14 41 179 181
217 297 339 343 348 350 337 327 323 324 326 327 331 331 335 341 344 349 354 359 1 3 10 15 16 16 18 16 10 14 18 16 15 11 15 19 21 30 32 33 43 57 63 76 78 67 61 83 100 110 108 106 105 105 107 95 77 51 4 340 324 313 336 13 6 15 20 349 360 14 11 17 59 71 64 22 8 10 321 348 14 12 359 353 1 23 155 175
221 249 301 324 330 333 324 313 310 316 321 323 325 324 330 339 343 349 354 359 1 4 10 15 18 15 15 14 6 11 17 12 11 10 11 15 21 31 34 34 41 54 61 76 89 92 86 93 100 100 105 109 101 88 87 77 73 82 101 125 327 310 330 352 355 12 7 347 358 11 8 5 38 69 5 343 330 299 310 350 9 358 347 344 339 352 109 157
221 235 269 303 315 315 309 303 299 310 319 320 319 319 327 335 342 350 354 358 360 4 9 14 18 14 13 11 3 8 13 8 8 7 6 13 20 31 37 34 34 45 59 73 93 102 97 96 102 100 99 103 98 90 87 77 67 76 95 86 43 1 356 359 1 6 357 344 349 5 18 11 28 71 8 342 317 301 318 319 351 344 324 320 314 311 76 157
223 231 251 281 299 302 294 292 291 303 316 316 314 315 324 332 343 349 354 357 360 3 6 13 17 13 13 9 3 3 10 10 4 2 1 7 18 30 39 38 34 42 60 74 89 94 91 93 105 104 97 99 102 97 89 79 67 70 79 64 42 22 13 9 7 4 355 347 344 353 24 41 42 27 359 346 330 322 311 272 292 334 316 284 287 285 268 175
224 229 241 263 284 289 284 282 283 296 306 307 306 309 319 332 343 348 353 358 358 1 4 13 19 15 13 11 4 360 9 12 3 359 357 4 16 26 37 41 41 41 50 66 78 82 83 90 106 103 100 103 103 94 85 78 69 67 64 53 42 37 30 20 15 11 1 352 348 346 360 32 32 316 319 334 333 297 300 294 286 324 321 268 272 274 267 209
224 229 236 252 271 279 276 274 275 284 290 293 297 305 319 332 342 348 354 356 355 359 5 15 21 15 14 14 6 4 9 7 5 0 357 8 16 25 36 44 55 48 40 51 68 75 78 78 104 104 102 105 102 92 86 80 71 66 63 52 41 44 41 28 24 21 7 356 347 341 338 338 329 324 322 324 315 281 293 309 296 303 299 272 271 260 263 251
224 228 234 245 260 270 271 268 269 272 276 283 292 303 320 331 340 348 353 354 352 360 9 17 22 16 17 17 7 9 13 9 11 8 6 15 20 31 38 45 62 74 66 52 60 71 72 52 61 95 95 99 102 97 91 86 77 66 62 50 33 34 39 30 26 26 17 7 355 345 336 318 310 327 346 323 271 277 280 298 300 295 275 260 263 251 245 251
224 228 233 241 251 262 265 263 261 262 268 277 289 303 318 330 339 348 351 349 350 3 12 17 20 17 17 21 12 7 17 21 18 15 17 22 26 35 42 46 55 71 78 71 68 64 54 48 63 79 81 84 89 94 93 91 84 65 53 39 23 29 39 35 30 25 20 15 9 2 351 332 318 310 311 295 231 267 273 275 304 297 273 258 252 249 235 234
224 228 233 239 245 255 260 258 255 257 263 271 284 301 315 327 337 346 347 344 347 6 12 15 15 17 17 23 22 10 14 23 25 23 23 29 35 41 46 50 55 62 67 72 75 63 38 47 70 68 66 64 63 63 79 90 87 73 59 39 22 30 36 34 26 15 15 15 15 19 9 354 332 305 290 275 235 247 269 266 256 269 276 270 252 243 231 218
225 228 233 238 242 249 254 253 251 253 259 266 280 297 310 324 336 341 342 337 341 5 9 15 6 15 18 20 31 23 16 20 28 33 31 35 43 49 55 59 63 67 68 72 72 68 64 62 63 62 59 55 50 48 65 87 83 77 82 70 42 35 29 25 15 358 0 9 10 20 18 8 344 314 293 277 260 245 253 257 259 263 266 262 250 240 236 226
226 227 232 237 240 244 248 248 247 250 255 262 275 291 305 320 330 334 334 322 297 358 359 5 358 11 16 19 32 33 30 25 27 36 39 42 47 55 63 69 74 76 78 80 79 81 87 79 72 69 64 60 51 46 75 104 99 95 112 96 68 44 28 22 11 347 346 6 10 12 9 9 355 329 312 291 275 261 250 252 261 268 255 242 234 230 238 241
226 227 231 236 238 241 243 243 244 247 252 258 269 283 299 314 321 327 323 287 227 284 315 338 347 1 9 20 33 35 41 39 32 36 42 46 50 57 66 74 80 82 83 88 95 96 89 86 83 77 73 70 59 50 69 101 112 114 105 90 72 45 27 22 7 338 336 4 14 8 358 353 355 339 323 307 286 270 258 254 254 257 249 232 226 230 240 242
225 227 230 234 237 238 238 240 241 244 249 254 264 276 292 305 311 318 306 244 212 239 274 313 333 348 3 21 40 39 41 49 47 43 46 50 53 59 66 74 79 83 87 92 96 91 81 78 81 79 76 72 63 47 34 52 117 87 65 59 49 32 21 19 5 332 336 6 12 7 357 347 342 337 326 317 305 289 270 260 254 252 248 240 236 240 244 240
225 227 229 233 236 235 236 237 238 241 246 250 258 270 285 294 302 307 280 222 214 236 263 300 318 324 340 13 47 49 44 50 54 50 51 54 57 60 66 73 79 84 88 87 82 77 76 75 82 90 85 76 70 38 7 41 90 63 48 41 32 19 12 17 15 2 9 13 8 359 354 349 338 329 326 322 316 308 294 276 265 259 259 256 254 257 251 234
225 226 228 231 234 234 233 233 235 238 242 247 254 264 277 284 295 295 253 216 218 232 251 287 299 293 277 255 65 64 57 58 60 58 54 54 57 61 65 69 77 81 79 80 78 74 73 72 80 92 100 111 127 352 22 44 52 44 38 35 24 14 12 18 35 46 27 17 7 355 348 349 341 328 323 324 322 319 314 302 287 273 268 267 267 274 264 231
224 225 227 230 232 232 231 230 232 235 239 244 250 259 269 278 288 281 238 215 220 230 237 271 289 276 242 210 175 112 78 71 71 73 67 62 60 60 66 68 68 73 74 74 72 74 77 78 83 86 87 112 291 18 28 29 32 30 28 27 20 17 16 13 30 45 30 18 6 355 347 350 350 338 326 322 317 319 318 309 309 296 280 275 272 273 263 237
224 224 226 228 230 229 228 227 229 232 236 240 246 254 262 271 280 267 229 214 218 225 228 249 278 262 231 223 191 141 108 89 79 81 78 74 72 67 70 71 64 66 70 67 60 64 76 79 78 76 74 59 24 32 29 19 20 16 10 13 20 24 11 356 14 36 32 18 5 353 348 351 357 356 345 329 318 316 314 306 318 312 294 287 278 271 262 249
223 224 225 227 228 227 226 225 226 230 233 237 243 250 258 266 273 257 224 213 216 220 225 236 253 242 206 201 198 165 124 102 90 86 88 83 80 77 75 73 69 71 71 70 66 57 66 75 74 73 66 44 33 33 26 16 13 7 354 355 20 31 8 355 13 32 27 15 6 349 344 352 1 5 4 346 340 337 322 308 316 314 303 300 291 281 269 255
223 223 224 225 225 224 223 222 224 227 230 235 240 247 256 264 271 254 221 212 217 217 219 219 217 220 196 178 183 178 156 134 120 112 107 95 85 80 73 63 64 73 74 82 91 77 71 83 82 73 61 41 30 28 20 10 4 0 348 345 23 43 12 6 17 25 15 10 7 340 340 352 357 356 349 328 344 359 341 319 312 312 311 311 309 299 282 262
222 222 222 223 223 222 220 219 221 225 229 233 238 246 255 262 267 250 219 211 217 217 216 209 197 204 187 163 182 182 158 140 127 120 112 102 94 86 78 73 72 76 77 91 100 91 81 80 72 64 61 48 34 24 12 6 0 353 349 351 22 39 356 8 16 14 356 358 355 336 345 352 343 342 343 325 313 352 358 338 317 310 312 315 317 311 295 277
221 221 221 221 220 219 217 217 219 223 228 231 237 245 255 261 260 239 217 212 214 218 219 207 194 195 175 159 190 178 151 141 129 120 116 113 102 86 74 82 88 86 77 85 89 86 77 67 59 51 48 43 32 22 10 3 357 349 354 352 342 338 353 4 3 350 329 341 340 337 353 353 337 338 343 337 328 334 357 348 323 311 313 316 318 312 303 293
220 220 219 219 217 216 214 215 218 222 226 230 236 245 253 260 259 233 215 212 213 218 221 209 196 190 167 169 188 167 145 140 128 125 133 122 102 88 65 64 87 104 91 80 77 73 67 57 50 44 40 33 24 19 8 353 350 359 6 1 352 352 3 6 357 347 335 333 327 331 353 352 333 334 336 337 341 340 344 344 328 314 311 317 317 305 298 293
219 218 217 216 213 212 211 213 217 221 224 229 235 245 251 257 256 231 214 212 213 217 221 210 198 187 169 172 178 159 142 135 134 156 151 122 108 101 83 61 86 113 90 79 71 62 59 53 46 42 39 33 24 17 7 353 358 9 13 10 3 357 7 16 7 357 341 329 325 327 339 336 322 331 333 330 340 343 338 336 330 317 306 307 306 294 288 284
216 216 214 211 209 209 209 212 216 219 223 229 237 247 255 259 252 228 213 212 213 215 219 211 199 189 175 175 176 160 146 140 152 173 150 124 121 109 93 73 44 40 56 79 74 61 58 57 50 47 43 33 24 13 10 12 7 8 12 9 3 4 29 32 13 356 330 313 317 322 325 317 311 322 328 324 333 336 332 333 332 321 302 293 293 288 285 282
212 212 209 207 206 206 207 211 215 218 222 229 236 244 253 259 249 224 213 215 215 215 218 212 206 199 187 182 178 164 150 149 161 166 146 128 120 108 110 116 58 39 43 68 72 65 64 68 63 61 55 36 23 11 10 15 9 6 9 8 7 15 49 49 13 357 342 304 284 300 321 325 317 314 316 317 321 323 325 328 327 320 309 298 291 284 278 272
208 206 204 203 203 204 206 209 214 219 224 231 239 245 248 251 241 221 214 217 217 218 218 217 214 205 193 184 178 166 155 157 164 157 143 136 127 119 122 111 71 55 51 66 73 73 73 75 66 57 48 35 23 12 8 8 5 4 4 7 10 3 15 40 25 20 33 40 263 298 327 339 333 316 309 312 313 313 314 315 314 316 318 305 282 268 261 257
202 200 200 201 201 203 205 209 213 217 224 231 239 248 249 242 229 217 215 217 214 216 218 218 216 207 194 185 178 167 157 162 169 159 149 146 141 121 92 84 81 69 74 79 72 70 79 69 62 56 42 30 19 10 7 5 0 357 1 2 356 343 344 0 10 27 43 61 54 344 336 345 344 312 298 301 304 309 312 313 315 319 319 291 266 259 259 260
196 197 198 200 201 203 205 209 213 216 222 229 235 246 247 237 223 214 215 214 211 213 217 218 216 210 199 189 186 177 167 173 179 173 171 165 152 116 71 60 79 60 76 87 68 78 102 85 86 80 52 31 15 6 3 6 1 350 355 356 344 342 346 353 5 25 34 39 25 354 333 336 336 306 290 289 297 309 314 313 316 321 329 294 272 273 280 282
195 196 198 200 201 204 207 210 214 217 223 231 239 242 237 229 221 216 213 210 209 213 218 222 219 213 207 198 196 192 184 189 195 197 197 189 182 163 141 341 36 33 54 63 13 7 54 80 131 101 45 35 15 3 354 358 3 350 344 343 342 346 347 348 349 354 18 26 7 338 314 313 319 314 299 292 301 313 314 308 306 308 315 303 270 271 281 280
196 197 199 201 203 205 209 212 215 220 226 234 242 238 224 219 218 216 212 207 211 214 215 224 223 216 214 209 208 203 198 203 209 213 217 218 220 210 200 211 230 38 73 52 322 319 355 30 116 12 13 22 13 3 346 344 353 351 341 336 341 348 347 345 341 338 358 17 335 309 301 304 310 313 310 308 311 314 315 311 308 308 309 298 251 249 261 268
198 200 201 204 206 208 210 213 216 220 226 233 237 227 213 210 214 216 212 205 209 213 211 216 218 215 214 214 218 214 206 209 216 221 226 229 234 236 240 247 253 46 99 158 268 286 332 4 21 11 1 1 10 10 349 338 340 342 340 337 339 345 345 341 340 333 320 301 282 279 285 291 298 306 314 319 315 309 307 310 311 312 310 308 291 268 258 258
201 202 204 207 209 210 212 215 217 219 225 231 227 215 208 208 211 215 213 207 207 208 204 204 206 207 208 211 218 220 216 210 209 220 226 228 241 247 247 247 233 202 178 211 260 315 344 354 354 355 355 350 3 11 341 324 327 331 334 335 335 336 335 334 339 333 306 282 271 274 279 281 286 299 309 311 308 301 301 308 310 305 299 297 293 283 270 264
205 205 208 210 211 214 215 217 219 221 227 227 215 207 208 209 211 213 210 210 213 209 198 193 199 204 205 208 209 212 217 208 194 205 224 229 234 229 228 235 214 194 211 238 298 324 336 345 338 341 343 336 347 5 331 314 319 325 329 331 330 330 329 328 334 333 320 302 281 280 282 277 277 287 296 298 299 297 300 307 306 296 287 283 280 275 272 269
208 209 211 213 214 216 217 219 221 222 226 221 205 203 210 212 217 220 216 214 219 218 210 203 205 209 211 215 213 209 213 212 202 207 223 234 231 217 212 236 224 197 212 273 298 307 326 334 324 328 330 325 341 1 336 311 313 319 323 324 323 324 324 323 325 327 323 310 295 293 294 285 280 285 291 294 296 298 299 302 301 294 287 282 281 279 277 273
212 214 214 215 216 217 218 220 221 222 224 211 198 204 212 213 218 225 223 220 220 222 225 221 215 213 215 219 223 219 213 213 220 222 228 239 240 225 209 230 252 263 280 290 289 296 316 312 307 315 317 316 333 347 327 310 313 320 321 321 321 321 319 317 316 316 315 307 298 302 307 303 295 293 297 299 297 296 296 295 297 296 292 290 287 284 282 281
215 217 218 218 217 217 217 218 220 223 216 199 198 206 213 214 218 224 224 223 219 213 221 230 221 216 219 218 219 225 224 218 226 233 237 243 247 240 221 223 254 278 277 282 289 298 289 285 297 308 310 309 318 323 310 308 317 321 320 321 321 318 314 314 313 311 312 308 297 299 305 305 298 294 297 299 294 292 291 291 293 294 294 294 291 286 279 276
217 218 219 219 218 218 218 215 218 219 204 194 202 211 214 215 218 222 224 226 222 211 216 234 233 228 230 226 218 222 231 231 231 237 242 246 250 253 249 244 247 244 255 269 281 299 300 282 296 304 307 306 305 302 298 305 314 315 314 316 316 312 309 310 310 307 308 305 295 293 296 296 293 289 289 290 289 287 285 285 286 287 289 290 289 287 282 275
216 217 217 217 217 219 218 215 214 209 196 197 207 213 216 217 217 217 222 229 227 218 219 225 227 235 241 241 238 237 240 238 237 241 248 251 251 253 258 263 264 259 262 269 280 297 303 295 288 295 302 301 297 296 297 300 304 306 307 308 309 307 306 307 305 302 302 300 296 295 295 294 293 292 292 292 292 291 286 283 281 280 281 281 281 281 279 276
216 216 216 215 215 216 217 215 208 197 193 200 209 215 219 221 219 217 220 228 227 221 221 218 212 230 244 249 254 261 262 256 251 248 250 254 261 271 284 285 280 271 259 264 278 288 292 295 293 292 296 293 288 291 295 297 297 297 298 301 303 303 305 306 302 298 299 297 296 296 295 294 295 296 296 296 295 294 291 287 283 279 277 274 274 275 275 273
217 218 218 216 215 213 214 210 196 188 195 202 209 216 221 224 224 219 218 227 229 221 221 221 215 224 239 246 250 260 267 266 265 263 260 262 270 286 301 296 291 290 280 278 286 286 286 293 298 298 289 281 281 287 293 295 295 294 296 300 301 298 299 299 293 291 292 291 293 295 293 293 296 298 297 296 295 294 291 288 285 283 279 275 274 274 274 272
218 219 219 219 218 214 213 207 192 189 197 203 208 216 221 226 230 224 218 228 235 228 224 227 225 225 234 242 245 249 256 257 260 266 269 271 274 281 288 284 285 291 292 291 292 290 288 291 295 299 292 283 284 287 288 290 292 295 298 300 298 295 296 295 292 292 291 288 292 295 294 296 300 302 302 301 299 298 297 293 288 287 287 283 278 275 274 273
216 216 216 217 219 219 214 204 193 197 204 206 210 217 222 227 234 233 226 229 236 233 226 227 230 231 237 246 248 248 251 256 261 265 268 272 276 279 280 277 280 287 287 286 289 289 289 291 292 294 293 289 288 288 289 290 292 296 298 297 295 295 296 298 299 301 302 300 302 302 300 301 303 305 307 307 305 305 306 303 296 293 293 291 285 278 274 273
215 214 213 211 212 216 213 201 196 203 211 212 213 218 222 225 231 235 232 228 231 233 228 223 225 230 237 247 254 254 252 254 259 264 266 270 273 276 280 285 289 289 284 284 289 292 292 292 293 293 293 290 289 289 291 293 295 297 297 296 295 295 298 302 304 305 306 307 308 306 304 304 304 306 308 309 309 310 311 310 305 298 296 295 290 283 277 273
215 214 213 211 208 208 206 201 201 207 212 215 217 219 223 227 232 235 235 231 229 231 231 225 221 223 230 235 241 246 246 247 253 260 265 270 274 277 282 287 284 281 280 284 288 290 289 290 291 292 294 293 293 294 295 296 297 296 295 295 295 297 300 303 303 304 305 307 308 307 306 305 305 306 308 310 311 311 310 310 306 301 297 296 293 287 281 276
216 215 216 215 211 207 203 199 201 206 210 215 220 223 227 231 236 240 240 238 233 230 231 230 223 221 228 231 232 239 242 244 249 256 264 272 279 283 285 282 276 275 279 284 287 288 288 289 290 291 293 294 295 295 295 295 294 292 293 295 297 298 300 301 301 302 304 306 307 308 308 306 305 307 310 311 311 310 309 308 304 300 297 296 293 288 282 277
218 217 217 216 214 210 204 199 200 204 208 213 217 221 227 232 237 242 242 241 237 231 230 233 228 224 230 232 232 237 243 247 251 255 263 271 277 280 278 274 273 274 277 280 283 285 287 289 290 292 293 294 294 294 293 292 290 291 294 295 297 298 299 299 300 301 304 306 307 309 310 309 309 310 309 307 306 307 307 305 303 300 297 295 293 288 281 276
220 218 217 217 216 211 204 201 203 203 206 212 215 217 224 231 239 244 244 241 236 230 227 231 233 232 234 234 234 238 243 247 250 253 260 267 270 271 271 271 272 273 273 272 274 278 283 286 290 292 294 294 294 294 292 289 289 292 294 295 297 299 299 299 300 302 305 307 309 310 311 310 311 310 307 306 306 306 305 303 302 301 297 294 292 286 279 273
219 216 214 215 214 211 207 206 205 202 204 211 214 217 225 233 242 248 249 244 236 230 228 231 236 239 238 235 237 241 245 249 253 256 260 262 263 266 270 274 276 276 275 275 275 277 280 283 285 288 290 290 291 292 290 290 292 294 296 298 300 301 301 302 303 305 308 310 311 311 311 311 311 309 308 308 308 307 306 303 303 302 298 294 291 285 277 268
216 212 210 211 210 210 210 209 207 204 205 207 209 216 225 231 239 248 253 250 242 236 235 236 239 241 240 237 240 243 246 250 256 258 258 258 259 263 268 271 274 277 279 281 282 281 281 283 284 287 288 289 290 290 290 292 294 295 297 299 300 301 303 305 307 308 309 311 312 312 312 311 310 309 310 310 309 307 306 304 305 304 300 295 290 283 273 263
215 211 209 209 210 210 210 210 210 210 213 214 214 220 226 229 233 240 248 253 253 245 237 235 238 243 242 239 241 245 248 251 254 255 255 258 261 264 267 270 273 277 280 283 284 284 284 286 288 289 290 290 290 290 290 292 293 295 297 299 301 302 305 307 308 309 309 310 311 311 310 310 309 308 309 308 306 306 304 304 305 304 302 295 287 279 271 262
216 213 210 210 212 212 211 214 215 215 221 227 227 229 234 235 237 239 244 251 255 253 244 236 236 242 244 242 242 247 252 254 255 255 256 260 263 265 267 271 274 277 279 281 284 286 288 290 291 292 292 292 291 291 291 291 293 295 298 301 303 305 307 308 308 308 308 309 309 308 308 308 307 307 306 304 304 303 303 303 303 303 299 292 284 277 270 264